Location: Prague
(50.0830°N, 14.4670°E)
Time: 13:55:08
(UTC+02:00)

M-CUBED/EXP-1 PRIME - Visible Passes

Search period start: 28 March 2023 00:00
Search period end: 07 April 2023 00:00
Orbit: 411 x 587 km, 101.7° (Epoch: 27 March)

Date Brightness Start Highest point End Pass type
(mag) Time Alt. Az. Time Alt. Az. Time Alt. Az.
28 Mar ? 02:43:06 10° N 02:44:17 17° N 02:44:17 17° N visible
29 Mar ? 02:23:04 10° N 02:24:17 18° N 02:24:17 18° N visible
30 Mar ? 02:03:06 10° NNE 02:04:13 18° NNE 02:04:13 18° NNE visible
30 Mar ? 03:38:08 10° NNW 03:38:53 11° NW 03:38:53 11° NW visible
31 Mar ? 01:43:12 10° NNE 01:44:06 16° NNE 01:44:06 16° NNE visible
31 Mar ? 03:17:21 10° N 03:18:46 15° NNW 03:18:46 15° NNW visible
01 Apr ? 01:23:23 10° NNE 01:23:56 13° NE 01:23:56 13° NE visible
01 Apr ? 02:56:56 10° N 02:58:35 19° NNW 02:58:35 19° NNW visible
02 Apr ? 02:36:38 10° N 02:38:21 22° N 02:38:21 22° N visible
03 Apr ? 02:16:26 10° NNE 02:18:03 23° N 02:18:03 23° N visible
03 Apr ? 03:51:48 10° NNW 03:52:42 11° NW 03:52:42 11° NW visible
04 Apr ? 01:56:17 10° NNE 01:57:42 21° NNE 01:57:42 21° NNE visible
04 Apr ? 03:30:34 10° NNW 03:32:21 15° NW 03:32:21 15° NW visible
05 Apr ? 01:36:14 10° NNE 01:37:18 17° NE 01:37:18 17° NE visible
05 Apr ? 03:09:51 10° N 03:11:56 21° NNW 03:11:56 21° NNW visible
06 Apr ? 01:16:20 10° NE 01:16:50 13° NE 01:16:50 13° NE visible
06 Apr ? 02:49:19 10° N 02:51:28 26° NNW 02:51:28 26° NNW visible
